Change the Weather History Date:

Monday, November 7, 2011

  Actual Average (KARR) Record (KARR)
Temperature  
Mean Temperature 50 °F 42 °F  
Max Temperature 55 °F 53 °F 71 °F (2001)
Min Temperature 44 °F 32 °F 17 °F (1998)
Degree Days  
Heating Degree Days 16 23  
Month to date heating degree days 149  
Since 1 July heating degree days 756  
Cooling Degree Days 0 0  
Month to date cooling degree days 0  
Year to date cooling degree days 655  
Moisture  
Dew Point 46 °F    
Average Humidity 84    
Maximum Humidity 100    
Minimum Humidity 67    
Precipitation  
Precipitation 0.00 in 0.11 in 0.10 in (2011)
Month to date precipitation 0.86  
Year to date precipitation 32.62  
Sea Level Pressure  
Sea Level Pressure 30.17 in    
Wind  
Wind Speed 4 mph (ESE)    
Max Wind Speed 8 mph    
Max Gust Speed -    
Visibility 9 miles    
Events      
T = Trace of Precipitation, MM = Missing Value Source: NWS Daily Summary

Daily Weather History Graph

Daily Weather History Graph

Search for Another Location

Airport or City:

Trip Planner

Search our weather history database for the weather conditions in past years. The results will help you decide how hot, cold, wet, or windy it might be!

Date:

Astronomy

Nov. 07, 2011 Rise Set
Actual Time 6:34 AM CST 4:42 PM CST
Civil Twilight 6:04 AM CST 5:11 PM CST
Nautical Twilight 5:31 AM CST 5:44 PM CST
Astronomical Twilight 4:59 AM CST 6:17 PM CST
Moon 2:54 PM CST (11/7) 3:34 AM CST (11/7)
Length of Visible Light 11h 06m
Length of Day
10h 07m
Waxing Gibbous, 92% of the Moon is Illuminated
Nov 7
Waxing Gibbous
Nov 10
Full
Nov 18
Last Quarter
Nov 25
New
Dec 2
First Quarter

Hourly Weather History & Observations

Time (CST) Temp. Windchill Dew Point Humidity Pressure Visibility Wind Dir Wind Speed Gust Speed Precip Events Conditions
12:15 AM 50.0 °F - 46.4 °F 87% 30.10 in 10.0 mi SSW 8.1 mph - N/A   Overcast
12:35 AM 50.0 °F - 46.4 °F 87% 30.10 in 10.0 mi SW 6.9 mph - N/A   Drizzle
12:55 AM 50.0 °F - 46.4 °F 87% 30.10 in 10.0 mi SW 6.9 mph - N/A   Light Drizzle
1:15 AM 50.0 °F - 46.4 °F 87% 30.11 in 10.0 mi SW 4.6 mph - N/A   Mostly Cloudy
1:35 AM 48.2 °F - 46.4 °F 93% 30.11 in 10.0 mi SW 4.6 mph - N/A   Scattered Clouds
1:55 AM 44.6 °F 43.1 °F 42.8 °F 93% 30.12 in 10.0 mi SW 3.5 mph - N/A   Scattered Clouds
2:15 AM 44.6 °F 41.4 °F 44.6 °F 100% 30.12 in 7.0 mi South 5.8 mph - N/A   Mostly Cloudy
2:35 AM 46.4 °F 44.3 °F 44.6 °F 93% 30.13 in 7.0 mi South 4.6 mph - N/A   Mostly Cloudy
2:55 AM 46.4 °F 43.5 °F 46.4 °F 100% 30.14 in 7.0 mi South 5.8 mph - N/A   Mostly Cloudy
3:15 AM 46.4 °F - 46.4 °F 100% 30.14 in 10.0 mi Calm Calm - N/A   Overcast
3:35 AM 48.2 °F - 46.4 °F 93% 30.15 in 10.0 mi Calm Calm - N/A   Overcast
3:55 AM 48.2 °F - 46.4 °F 93% 30.15 in 10.0 mi Calm Calm - N/A   Light Drizzle
4:15 AM 48.2 °F - 46.4 °F 93% 30.15 in 10.0 mi North 3.5 mph - N/A   Overcast
4:35 AM 48.2 °F - 46.4 °F 93% 30.15 in 10.0 mi NNE 3.5 mph - N/A   Overcast
4:55 AM 48.2 °F - 46.4 °F 93% 30.17 in 10.0 mi Calm Calm - N/A   Overcast
5:15 AM 48.2 °F - 44.6 °F 87% 30.17 in 10.0 mi Calm Calm - N/A   Overcast
5:35 AM 48.2 °F - 44.6 °F 87% 30.16 in 10.0 mi Calm Calm - N/A   Mostly Cloudy
5:55 AM 46.4 °F - 44.6 °F 93% 30.17 in 10.0 mi Calm Calm - N/A   Mostly Cloudy
6:15 AM 46.4 °F 45.2 °F 44.6 °F 93% 30.17 in 7.0 mi ESE 3.5 mph - N/A   Mostly Cloudy
6:35 AM 46.4 °F 44.3 °F 44.6 °F 93% 30.18 in 7.0 mi SE 4.6 mph - N/A   Overcast
6:55 AM 46.4 °F - 44.6 °F 93% 30.18 in 7.0 mi Calm Calm - N/A   Overcast
7:15 AM 48.2 °F - 44.6 °F 87% 30.19 in 10.0 mi Calm Calm - N/A   Overcast
7:35 AM 48.2 °F - 46.4 °F 93% 30.19 in 7.0 mi Calm Calm - N/A   Overcast
7:55 AM 50.0 °F - 46.4 °F 87% 30.19 in 10.0 mi Calm Calm - N/A   Mostly Cloudy
8:15 AM 50.0 °F - 46.4 °F 87% 30.20 in 7.0 mi ESE 3.5 mph - N/A   Overcast
8:35 AM 50.0 °F - 46.4 °F 87% 30.20 in 10.0 mi Calm Calm - N/A   Mostly Cloudy
8:55 AM 51.8 °F - 46.4 °F 82% 30.20 in 10.0 mi ESE 3.5 mph - N/A   Mostly Cloudy
9:15 AM 51.8 °F - 46.4 °F 82% 30.21 in 10.0 mi East 3.5 mph - N/A   Overcast
9:35 AM 51.8 °F - 44.6 °F 76% 30.20 in 10.0 mi East 3.5 mph - N/A   Mostly Cloudy
9:55 AM 51.8 °F - 44.6 °F 76% 30.21 in 10.0 mi ESE 4.6 mph - N/A   Mostly Cloudy
10:15 AM 51.8 °F - 42.8 °F 71% 30.21 in 10.0 mi ESE 4.6 mph - N/A   Mostly Cloudy
10:35 AM 53.6 °F - 42.8 °F 67% 30.21 in 10.0 mi East 3.5 mph - N/A   Mostly Cloudy
10:55 AM 53.6 °F - 46.4 °F 77% 30.21 in 10.0 mi East 3.5 mph - N/A   Mostly Cloudy
11:15 AM 53.6 °F - 46.4 °F 77% 30.20 in 10.0 mi ESE 3.5 mph - N/A   Mostly Cloudy
11:35 AM 53.6 °F - 48.2 °F 82% 30.20 in 10.0 mi SE 4.6 mph - N/A   Scattered Clouds
11:55 AM 53.6 °F - 48.2 °F 82% 30.19 in 7.0 mi Calm Calm - N/A   Clear
12:15 PM 53.6 °F - 48.2 °F 82% 30.19 in 7.0 mi Calm Calm - N/A   Scattered Clouds
12:35 PM 55.4 °F - 50.0 °F 82% 30.19 in 7.0 mi Calm Calm - N/A   Scattered Clouds
12:55 PM 53.6 °F - 50.0 °F 88% 30.19 in 7.0 mi Calm Calm - N/A   Scattered Clouds
1:15 PM 55.4 °F - 48.2 °F 77% 30.18 in 7.0 mi Calm Calm - N/A   Mostly Cloudy
1:35 PM 55.4 °F - 48.2 °F 77% 30.17 in 7.0 mi Calm Calm - N/A   Scattered Clouds
2:15 PM 55.4 °F - 46.4 °F 72% 30.16 in 10.0 mi East 3.5 mph - N/A   Mostly Cloudy
2:35 PM 55.4 °F - 44.6 °F 67% 30.17 in 10.0 mi Calm Calm - N/A   Mostly Cloudy
2:55 PM 55.4 °F - 46.4 °F 72% 30.17 in 10.0 mi Calm Calm - N/A   Mostly Cloudy
3:15 PM 55.4 °F - 46.4 °F 72% 30.18 in 10.0 mi Calm Calm - N/A   Scattered Clouds
3:35 PM 55.4 °F - 46.4 °F 72% 30.17 in 10.0 mi East 3.5 mph - N/A   Clear
3:55 PM 53.6 °F - 46.4 °F 77% 30.17 in 10.0 mi East 3.5 mph - N/A   Scattered Clouds
4:15 PM 53.6 °F - 46.4 °F 77% 30.17 in 10.0 mi ENE 3.5 mph - N/A   Mostly Cloudy
4:35 PM 53.6 °F - 46.4 °F 77% 30.17 in 7.0 mi Calm Calm - N/A   Mostly Cloudy
4:55 PM 51.8 °F - 46.4 °F 82% 30.18 in 10.0 mi Calm Calm - N/A   Overcast
5:15 PM 51.8 °F - 44.6 °F 76% 30.18 in 7.0 mi Calm Calm - N/A   Overcast
5:35 PM 51.8 °F - 44.6 °F 76% 30.19 in 10.0 mi NE 3.5 mph - N/A   Overcast
5:55 PM 51.8 °F - 46.4 °F 82% 30.18 in 10.0 mi NNE 5.8 mph - N/A   Overcast
6:15 PM 51.8 °F - 44.6 °F 76% 30.19 in 7.0 mi Calm Calm - N/A   Overcast
6:35 PM 51.8 °F - 44.6 °F 76% 30.18 in 7.0 mi East 3.5 mph - N/A   Overcast
6:55 PM 50.0 °F - 44.6 °F 82% 30.18 in 7.0 mi ENE 4.6 mph - N/A   Mostly Cloudy
7:15 PM 50.0 °F - 44.6 °F 82% 30.18 in 7.0 mi NE 3.5 mph - N/A   Clear
7:35 PM 50.0 °F - 44.6 °F 82% 30.19 in 7.0 mi Calm Calm - N/A   Mostly Cloudy
7:55 PM 51.8 °F - 44.6 °F 76% 30.19 in 7.0 mi Calm Calm - N/A   Overcast
8:15 PM 50.0 °F - 44.6 °F 82% 30.19 in 10.0 mi Calm Calm - N/A   Overcast
8:35 PM 50.0 °F - 44.6 °F 82% 30.19 in 7.0 mi NE 3.5 mph - N/A   Overcast
8:55 PM 50.0 °F - 44.6 °F 82% 30.18 in 7.0 mi NE 4.6 mph - N/A   Overcast
9:15 PM 50.0 °F - 44.6 °F 82% 30.17 in 7.0 mi NE 5.8 mph - N/A   Overcast
9:35 PM 50.0 °F - 44.6 °F 82% 30.17 in 7.0 mi ENE 4.6 mph - N/A   Overcast
9:55 PM 50.0 °F - 44.6 °F 82% 30.16 in 10.0 mi East 6.9 mph - N/A   Overcast
10:15 PM 51.8 °F - 44.6 °F 76% 30.16 in 10.0 mi East 4.6 mph - N/A   Overcast
10:35 PM 50.0 °F - 44.6 °F 82% 30.15 in 10.0 mi ENE 5.8 mph - N/A   Overcast
10:55 PM 50.0 °F - 44.6 °F 82% 30.14 in 10.0 mi ENE 5.8 mph - N/A Rain Light Rain
11:15 PM 50.0 °F - 44.6 °F 82% 30.15 in 10.0 mi East 5.8 mph - N/A Rain Light Rain
11:35 PM 50.0 °F - 44.6 °F 82% 30.14 in 7.0 mi ENE 10.4 mph - 0.01 in Rain Rain
11:55 PM 48.2 °F - 44.6 °F 87% 30.12 in 10.0 mi NE 10.4 mph - 0.02 in Rain Rain